Naples, Italy

1:15 PM CEST on April 22, 2018 (GMT +0200)
Capodichino Mil

Weather History for LIRN - December, 2011

Change the Weather History Date:

Tuesday, December 20, 2011

  Actual Average Record
Temperature  
Mean Temperature 42 °F -  
Max Temperature 48 °F 55 °F 65 °F (2014)
Min Temperature 35 °F 40 °F 30 °F (2001)
Degree Days  
Heating Degree Days 24    
Moisture  
Dew Point 28 °F    
Average Humidity 60    
Maximum Humidity 81    
Minimum Humidity 37    
Precipitation  
Precipitation 0.00 in 0.14 in - ()
Sea Level Pressure  
Sea Level Pressure 29.93 in    
Wind  
Wind Speed 4 mph ()    
Max Wind Speed 8 mph    
Max Gust Speed -    
Visibility 6.2 miles    
Events      
Averages and records for this station are not official NWS values.
T = Trace of Precipitation, MM = Missing Value Source: Averaged Metar Reports

Daily Weather History Graph

Daily Weather History Graph

Search for Another Location

Airport or City:

Astronomy

Dec. 20, 2011 Rise Set
Actual Time 7:22 AM CET 4:37 PM CET
Civil Twilight 6:51 AM CET 5:08 PM CET
Nautical Twilight 6:17 AM CET 5:43 PM CET
Astronomical Twilight 5:43 AM CET 6:16 PM CET
Moon 2:22 AM CET (12/20) 1:03 PM CET (12/20)
Length of Visible Light 10h 16m
Length of Day
9h 14m
Waning Crescent, 24% of the Moon is Illuminated
Dec 20
Waning Crescent
Dec 24
New
Jan 1
First Quarter
Jan 9
Full
Jan 16
Last Quarter

Hourly Weather History & Observations

Time (CET) Temp. Windchill Dew Point Humidity Pressure Visibility Wind Dir Wind Speed Gust Speed Precip Events Conditions
12:20 AM 41.0 °F 39.0 °F 32.0 °F 70% 29.89 in 6.2 mi North 3.5 mph - N/A   Partly Cloudy
12:50 AM 41.0 °F - 30.2 °F 65% 29.89 in 6.2 mi Variable 2.3 mph - N/A   Partly Cloudy
1:20 AM 39.2 °F 37.0 °F 28.4 °F 65% 29.89 in 6.2 mi North 3.5 mph - N/A   Partly Cloudy
1:50 AM 39.2 °F 37.0 °F 30.2 °F 70% 29.89 in 6.2 mi North 3.5 mph - N/A   Partly Cloudy
2:20 AM 41.0 °F 38.0 °F 30.2 °F 65% 29.89 in 6.2 mi North 4.6 mph - N/A   Partly Cloudy
2:50 AM 37.4 °F - 30.2 °F 75% 29.89 in 6.2 mi North 2.3 mph - N/A   Partly Cloudy
3:20 AM 39.2 °F 35.9 °F 30.2 °F 70% 29.89 in 6.2 mi North 4.6 mph - N/A   Partly Cloudy
3:50 AM 39.2 °F 35.9 °F 30.2 °F 70% 29.89 in 6.2 mi North 4.6 mph - N/A   Partly Cloudy
4:20 AM 35.6 °F 32.8 °F 30.2 °F 81% 29.89 in 6.2 mi NNW 3.5 mph - N/A   Partly Cloudy
4:50 AM 37.4 °F 34.9 °F 30.2 °F 75% 29.89 in - NNW 3.5 mph - N/A   Clear
5:20 AM 37.4 °F 32.8 °F 32.0 °F 81% 29.89 in - NNW 5.8 mph - N/A   Clear
5:50 AM 37.4 °F 32.1 °F 30.2 °F 75% 29.92 in - NNW 6.9 mph - N/A   Clear
6:20 AM 37.4 °F 32.8 °F 30.2 °F 75% 29.92 in - WNW 5.8 mph - N/A   Clear
6:50 AM 35.6 °F 31.7 °F 30.2 °F 81% 29.92 in - NW 4.6 mph - N/A   Clear
7:20 AM 37.4 °F 33.8 °F 30.2 °F 75% 29.95 in - NW 4.6 mph - N/A   Clear
7:50 AM 35.6 °F - 30.2 °F 81% 29.95 in - North 2.3 mph - N/A   Clear
8:20 AM 37.4 °F 34.9 °F 30.2 °F 75% 29.95 in - NNW 3.5 mph - N/A   Clear
8:50 AM 41.0 °F 39.0 °F 30.2 °F 65% 29.95 in - NNW 3.5 mph - N/A   Clear
9:20 AM 41.0 °F 38.0 °F 30.2 °F 65% 29.98 in - NNE 4.6 mph - N/A   Clear
9:50 AM 42.8 °F 41.1 °F 30.2 °F 61% 29.98 in - North 3.5 mph - N/A   Clear
10:20 AM 44.6 °F - 32.0 °F 61% 29.98 in - Variable 2.3 mph - N/A   Clear
10:50 AM 44.6 °F 43.1 °F 26.6 °F 49% 29.98 in - North 3.5 mph - N/A   Clear
11:20 AM 46.4 °F 45.2 °F 26.6 °F 46% 29.98 in - NNW 3.5 mph - N/A   Clear
11:50 AM 48.2 °F - 26.6 °F 43% 29.98 in - Variable 2.3 mph - N/A   Clear
12:20 PM 48.2 °F - 24.8 °F 40% 29.95 in - WNW 4.6 mph - N/A   Clear
12:50 PM 48.2 °F - 24.8 °F 40% 29.95 in - WNW 6.9 mph - N/A   Clear
1:20 PM 48.2 °F - 24.8 °F 40% 29.95 in - NW 8.1 mph - N/A   Clear
1:50 PM 48.2 °F - 24.8 °F 40% 29.95 in - NW 6.9 mph - N/A   Clear
2:20 PM 48.2 °F - 24.8 °F 40% 29.95 in - WNW 8.1 mph - N/A   Clear
2:50 PM 48.2 °F - 24.8 °F 40% 29.95 in - WNW 4.6 mph - N/A   Clear
3:20 PM 48.2 °F - 23.0 °F 37% 29.95 in - NNW 4.6 mph - N/A   Clear
3:50 PM 48.2 °F - 23.0 °F 37% 29.95 in - North 4.6 mph - N/A   Clear
4:20 PM 46.4 °F - 24.8 °F 43% 29.95 in - Variable 2.3 mph - N/A   Clear
4:50 PM 44.6 °F - 24.8 °F 46% 29.95 in - Variable 2.3 mph - N/A   Clear
5:20 PM 44.6 °F - 24.8 °F 46% 29.95 in - East 2.3 mph - N/A   Clear
5:50 PM 41.0 °F - 24.8 °F 53% 29.95 in - Calm Calm - N/A   Clear
6:20 PM 41.0 °F - 26.6 °F 57% 29.95 in - Calm Calm - N/A   Clear
6:50 PM 41.0 °F - 26.6 °F 57% 29.95 in - South 1.2 mph - N/A   Clear
7:20 PM 39.2 °F - 26.6 °F 61% 29.95 in - Calm Calm - N/A   Clear
7:50 PM 41.0 °F - 26.6 °F 57% 29.95 in - Calm Calm - N/A   Clear
8:20 PM 39.2 °F 37.0 °F 26.6 °F 61% 29.95 in - ENE 3.5 mph - N/A   Clear
8:50 PM 37.4 °F 34.9 °F 28.4 °F 70% 29.95 in - NE 3.5 mph - N/A   Clear
9:20 PM 37.4 °F 33.8 °F 26.6 °F 65% 29.95 in - NE 4.6 mph - N/A   Clear
9:50 PM 37.4 °F 33.8 °F 24.8 °F 60% 29.92 in 6.2 mi NE 4.6 mph - N/A   Partly Cloudy
10:20 PM 37.4 °F 33.8 °F 26.6 °F 65% 29.92 in 6.2 mi ENE 4.6 mph - N/A   Scattered Clouds
10:50 PM 37.4 °F 33.8 °F 26.6 °F 65% 29.92 in 6.2 mi ENE 4.6 mph - N/A   Scattered Clouds
11:20 PM 39.2 °F 35.9 °F 24.8 °F 56% 29.89 in 6.2 mi NE 4.6 mph - N/A   Scattered Clouds
11:50 PM 39.2 °F 35.0 °F 24.8 °F 56% 29.89 in 6.2 mi NE 5.8 mph - N/A   Scattered Clouds